Date String (YYYY-MM-DD hh:mm:ss) UTC,Instrument flags,absolute air pressure of the measurement (hPa),sample flow rate (lpm),inlet stack bypass flow (lpm),air temperature of the measurement (°C),ambient temperature measured by the external sensor (°C),aerosol sample conditioner tube jacket temperature (°C),OPC LED temperature (°C),internal box temperature (°C),relative humidity of the measurement (%),span deviation,mass concentration of particles derived from Lorenz-Mie calculation of OPC scattering (μg/m³),mass concentration of particles derived from Lorenz-Mie calculation of OPC scattering (μg/m³),mass concentration of particles derived from Lorenz-Mie calculation of OPC scattering (μg/m³)
DateTimeUTC,F1_M11,P_M11,Q1_M11,Q2_M11,T1_M11,T2_M11,T3_M11,T4_M11,T5_M11,U1_M11,ZSPAN_M11,X0_M11,X2_M11,X1_M11
2023-09-05 14:00:00,SystemResetWarning,0831.7,5.00,000.00,028.4,027.0,000.0,036.8,030.0,22.5,0000.0,0004.98,0001.51,0000.94
2023-09-05 14:01:00,SystemResetWarning,0831.9,5.00,000.00,028.4,027.0,000.0,036.8,030.0,22.3,0000.0,0004.95,0001.50,0000.94
2023-09-05 14:02:00,SystemResetWarning,0831.9,5.00,000.00,028.4,027.0,000.0,036.8,030.0,22.6,0000.0,0004.90,0001.49,0000.94
2023-09-05 14:03:00,SystemResetWarning,0832.1,5.00,000.00,028.4,027.0,000.0,036.8,030.0,22.8,0000.0,0004.88,0001.49,0000.95
2023-09-05 14:04:00,SystemResetWarning,0832.2,5.00,000.00,028.4,027.1,000.0,036.8,030.0,22.6,0000.0,0004.79,0001.48,0000.95
2023-09-05 14:05:00,SystemResetWarning,0832.4,5.00,000.00,028.4,027.1,000.0,036.8,030.0,22.9,0000.0,0004.68,0001.46,0000.95
2023-09-05 14:06:00,SystemResetWarning,0831.9,5.00,000.00,028.5,027.1,000.0,036.8,030.0,22.7,0000.0,0005.25,0001.43,0000.96
2023-09-05 14:07:00,SystemResetWarning,0831.9,5.00,000.00,028.5,027.1,000.0,036.8,030.0,22.9,0000.0,0006.01,0001.44,0000.96
2023-09-05 14:08:00,SystemResetWarning,0831.9,4.99,000.00,028.5,027.1,000.0,036.8,030.1,22.8,0000.0,0005.66,0001.39,0000.96
2023-09-05 14:09:00,SystemResetWarning,0831.9,5.00,000.00,028.5,027.1,000.0,036.8,030.0,22.8,0000.0,0004.66,0001.33,0000.96
2023-09-05 14:10:00,SystemResetWarning,0831.9,5.00,000.00,028.5,027.2,000.0,036.8,030.1,22.9,0000.0,0005.05,0001.32,0000.96
2023-09-05 14:11:00,SystemResetWarning,0831.9,4.99,000.00,028.5,027.2,000.0,036.8,030.1,22.7,0000.0,0004.84,0001.31,0000.97
2023-09-05 14:12:00,SystemResetWarning,0831.9,5.00,000.00,028.5,027.2,000.0,036.8,030.2,22.7,0000.0,0004.90,0001.33,0000.99
2023-09-05 14:13:00,SystemResetWarning,0832.0,5.00,000.00,028.6,027.2,000.0,036.8,030.1,23.0,0000.0,0004.95,0001.34,0000.99
2023-09-05 14:14:00,SystemResetWarning,0832.0,5.01,000.00,028.6,027.2,000.0,036.8,030.2,23.2,0000.0,0004.92,0001.32,0001.01
2023-09-05 14:15:00,SystemResetWarning,0832.0,5.00,000.00,028.6,027.3,000.0,036.8,030.2,23.0,0000.0,0004.94,0001.33,0001.02
2023-09-05 14:16:00,SystemResetWarning,0832.0,5.00,000.00,028.6,027.3,000.0,036.9,030.2,23.2,0000.0,0004.99,0001.35,0001.03
2023-09-05 14:17:00,SystemResetWarning,0832.0,5.00,000.00,028.6,027.3,000.0,036.9,030.2,22.7,0000.0,0004.38,0001.38,0001.03
2023-09-05 14:18:00,SystemResetWarning,0832.1,5.00,000.00,028.6,027.3,000.0,036.9,030.3,22.8,0000.0,0003.78,0001.39,0001.04
2023-09-05 14:19:00,SystemResetWarning,0832.0,5.00,000.00,028.6,027.4,000.0,036.9,030.2,22.8,0000.0,0004.28,0001.43,0001.06
2023-09-05 14:20:00,SystemResetWarning,0832.1,5.00,000.00,028.7,027.4,000.0,036.9,030.2,22.7,0000.0,0005.04,0001.48,0001.09
2023-09-05 14:21:00,SystemResetWarning,0832.1,5.00,000.00,028.7,027.4,000.0,036.9,030.3,23.1,0000.0,0004.53,0001.49,0001.10
2023-09-05 14:22:00,SystemResetWarning,0832.1,5.00,000.00,028.7,027.4,000.0,037.0,030.3,22.9,0000.0,0004.48,0001.46,0001.10
2023-09-05 14:23:00,SystemResetWarning,0832.1,5.00,000.00,028.7,027.4,000.0,037.0,030.3,22.3,0000.0,0004.56,0001.48,0001.11
2023-09-05 14:24:00,SystemResetWarning,0832.1,5.00,000.00,028.7,027.4,000.0,037.0,030.3,22.6,0000.0,0004.62,0001.51,0001.12
2023-09-05 14:25:00,SystemResetWarning,0832.1,4.99,000.00,028.7,027.4,000.0,037.0,030.4,23.0,0000.0,0004.69,0001.54,0001.12
2023-09-05 14:26:00,SystemResetWarning,0832.1,5.00,000.00,028.7,027.5,000.0,037.0,030.4,23.3,0000.0,0004.75,0001.58,0001.13
2023-09-05 14:27:00,SystemResetWarning,0832.2,5.00,000.00,028.8,027.5,000.0,037.0,030.4,22.8,0000.0,0004.87,0001.62,0001.14
2023-09-05 14:28:00,SystemResetWarning,0832.2,5.00,000.00,028.8,027.5,000.0,037.0,030.4,22.5,0000.0,0004.95,0001.65,0001.16
2023-09-05 14:29:00,SystemResetWarning,0832.2,4.99,000.00,028.8,027.5,000.0,037.0,030.4,22.4,0000.0,0005.01,0001.67,0001.17
2023-09-05 14:30:00,SystemResetWarning,0832.2,5.00,000.00,028.8,027.6,000.0,037.0,030.5,22.4,0000.0,0004.72,0001.68,0001.17
2023-09-05 14:31:00,SystemResetWarning,0832.2,4.99,000.00,028.8,026.9,000.0,037.0,030.3,22.5,0000.0,0003.18,0001.68,0001.16
2023-09-05 14:32:00,SystemResetWarning,0832.2,5.00,000.00,028.7,025.2,000.0,036.9,029.7,22.7,0000.0,0003.59,0001.70,0001.16
2023-09-05 14:33:00,SystemResetWarning,0832.2,5.02,000.00,028.5,024.4,000.0,036.8,029.5,22.8,0000.0,0003.98,0001.77,0001.16
2023-09-05 14:34:00,SystemResetWarning,0832.2,5.01,000.00,028.4,024.6,000.0,036.8,029.4,23.2,0000.0,0003.94,0001.76,0001.15
2023-09-05 14:35:00,SystemResetWarning,0832.2,5.00,000.00,028.3,024.9,000.0,036.8,029.4,23.5,0000.0,0003.83,0001.73,0001.15
2023-09-05 14:36:00,SystemResetWarning,0832.2,5.00,000.00,028.3,025.3,000.0,036.8,029.5,24.0,0000.0,0003.85,0001.75,0001.16
2023-09-05 14:37:00,SystemResetWarning,0832.2,5.01,000.00,028.3,025.6,000.0,036.8,029.6,24.2,0000.0,0003.81,0001.72,0001.16
2023-09-05 14:38:00,SystemResetWarning,0832.2,5.00,000.00,028.3,025.9,000.0,036.8,029.7,23.9,0000.0,0003.76,0001.69,0001.15
2023-09-05 14:39:00,SystemResetWarning,0832.3,5.00,000.00,028.3,026.2,000.0,036.8,029.7,24.0,0000.0,0003.89,0001.67,0001.15
2023-09-05 14:40:00,SystemResetWarning,0832.3,5.01,000.00,028.3,026.4,000.0,036.7,029.8,23.5,0000.0,0003.98,0001.65,0001.14
2023-09-05 14:41:00,SystemResetWarning,0832.3,4.99,000.00,028.3,026.5,000.0,036.7,029.8,23.6,0000.0,0003.95,0001.64,0001.14
2023-09-05 14:42:00,SystemResetWarning,0832.3,5.00,000.00,028.3,026.7,000.0,036.7,029.8,23.6,0000.0,0003.96,0001.64,0001.15
2023-09-05 14:43:00,SystemResetWarning,0832.3,5.01,000.00,028.3,026.8,000.0,036.7,029.9,24.0,0000.0,0003.88,0001.62,0001.14
2023-09-05 14:44:00,SystemResetWarning,0832.3,5.00,000.00,028.3,026.9,000.0,036.7,029.9,23.8,0000.0,0003.37,0001.58,0001.13
2023-09-05 14:45:00,SystemResetWarning,0832.3,5.00,000.00,028.4,027.0,000.0,036.7,029.9,23.7,0000.0,0003.21,0001.54,0001.14
2023-09-05 14:46:00,SystemResetWarning,0832.4,4.99,000.00,028.4,027.1,000.0,036.7,029.9,23.4,0000.0,0003.25,0001.54,0001.14
2023-09-05 14:47:00,SystemResetWarning,0832.4,5.00,000.00,028.4,027.1,000.0,036.8,030.0,23.5,0000.0,0003.58,0001.54,0001.13
2023-09-05 14:48:00,SystemResetWarning,0832.5,5.00,000.00,028.4,027.2,000.0,036.8,030.0,23.5,0000.0,0003.95,0001.54,0001.14
2023-09-05 14:49:00,SystemResetWarning,0832.5,5.00,000.00,028.4,027.3,000.0,036.8,030.0,23.3,0000.0,0004.06,0001.59,0001.14
2023-09-05 14:50:00,SystemResetWarning,0832.5,5.00,000.00,028.5,027.3,000.0,036.8,030.1,23.3,0000.0,0003.99,0001.63,0001.15
2023-09-05 14:51:00,SystemResetWarning,0832.5,5.00,000.00,028.5,027.4,000.0,036.8,030.2,23.4,0000.0,0003.86,0001.61,0001.16
2023-09-05 14:52:00,SystemResetWarning,0832.5,5.00,000.00,028.5,027.4,000.0,036.8,030.2,23.3,0000.0,0004.44,0001.60,0001.17
2023-09-05 14:53:00,SystemResetWarning,0832.5,5.00,000.00,028.6,027.4,000.0,036.8,030.2,23.3,0000.0,0004.45,0001.63,0001.18
2023-09-05 14:54:00,SystemResetWarning,0832.6,5.00,000.00,028.6,027.5,000.0,036.8,030.2,23.3,0000.0,0004.27,0001.65,0001.19
2023-09-05 14:55:00,SystemResetWarning,0832.5,5.00,000.00,028.6,027.5,000.0,036.9,030.2,23.2,0000.0,0004.78,0001.68,0001.20
2023-09-05 14:56:00,SystemResetWarning,0832.5,5.00,000.00,028.6,027.5,000.0,036.9,030.3,23.0,0000.0,0005.03,0001.70,0001.21
2023-09-05 14:57:00,SystemResetWarning,0832.6,4.99,000.00,028.6,027.5,000.0,036.9,030.3,22.9,0000.0,0005.03,0001.71,0001.22
2023-09-05 14:58:00,SystemResetWarning,0832.6,4.99,000.00,028.7,027.6,000.0,036.9,030.3,22.9,0000.0,0004.94,0001.74,0001.24
2023-09-05 14:59:00,SystemResetWarning,0832.6,5.00,000.00,028.7,027.6,000.0,036.9,030.4,22.7,0000.0,0005.38,0001.76,0001.25
